Lawrence, MA

8:41 AM EDT on September 26, 2016 (GMT -0400)
Lawrence Municipal

Weather History for KLWM - March, 2013

Change the Weather History Date:

Sunday, March 17, 2013

  Actual Average Record
Temperature  
Mean Temperature 30 °F -  
Max Temperature 37 °F 47 °F 68 °F (2003)
Min Temperature 23 °F 26 °F 10 °F (1967)
Degree Days  
Heating Degree Days 35    
Moisture  
Dew Point 7 °F    
Average Humidity 41    
Maximum Humidity 68    
Minimum Humidity 24    
Precipitation  
Precipitation 0.00 in - - ()
Sea Level Pressure  
Sea Level Pressure 30.08 in    
Wind  
Wind Speed 6 mph (NW)    
Max Wind Speed 18 mph    
Max Gust Speed 26 mph    
Visibility 10 miles    
Events      
Averages and records for this station are not official NWS values.
T = Trace of Precipitation, MM = Missing Value Source: NWS Daily Summary

Daily Weather History Graph

Daily Weather History Graph

Search for Another Location

Airport or City:

Trip Planner

Search our weather history database for the weather conditions in past years. The results will help you decide how hot, cold, wet, or windy it might be!

Date:

Astronomy

Mar. 17, 2013 Rise Set
Actual Time 6:52 AM EDT 6:53 PM EDT
Civil Twilight 6:24 AM EDT 7:21 PM EDT
Nautical Twilight 5:51 AM EDT 7:54 PM EDT
Astronomical Twilight 5:18 AM EDT 8:28 PM EDT
Moon 9:55 AM EDT (3/17) 12:05 AM EDT (3/17)
Length of Visible Light 12h 57m
Length of Day
12h 00m
Waxing Crescent, 31% of the Moon is Illuminated
Mar 17
Waxing Crescent
Mar 19
First Quarter
Mar 27
Full
Apr 3
Last Quarter
Apr 10
New

Hourly Weather History & Observations

Time (EDT) Temp. Windchill Dew Point Humidity Pressure Visibility Wind Dir Wind Speed Gust Speed Precip Events Conditions
12:54 AM 27.0 °F 21.6 °F 10.9 °F 51% 29.91 in 10.0 mi North 4.6 mph - N/A   Partly Cloudy
1:54 AM 28.0 °F - 12.0 °F 51% 29.92 in 10.0 mi Calm Calm - N/A   Clear
2:54 AM 26.1 °F - 12.0 °F 55% 29.92 in 10.0 mi Calm Calm - N/A   Clear
3:54 AM 25.0 °F - 12.9 °F 60% 29.93 in 10.0 mi Calm Calm - N/A   Clear
4:54 AM 25.0 °F - 12.9 °F 60% 29.94 in 10.0 mi Calm Calm - N/A   Clear
5:54 AM 23.0 °F - 14.0 °F 68% 29.96 in 10.0 mi Calm Calm - N/A   Clear
6:54 AM 24.1 °F - 12.0 °F 60% 29.96 in 10.0 mi Calm Calm - N/A   Clear
7:54 AM 26.1 °F - 14.0 °F 60% 30.01 in 10.0 mi Calm Calm - N/A   Clear
8:54 AM 28.0 °F 19.3 °F 10.0 °F 47% 30.05 in 10.0 mi WNW 9.2 mph 20.7 mph N/A   Scattered Clouds
9:54 AM 30.9 °F 21.2 °F 8.1 °F 38% 30.03 in 10.0 mi WNW 12.7 mph 16.1 mph N/A   Clear
10:54 AM 33.1 °F 23.9 °F 9.0 °F 37% 30.05 in 10.0 mi NW 12.7 mph 25.3 mph N/A   Clear
11:54 AM 34.0 °F 23.0 °F 9.0 °F 35% 30.06 in 10.0 mi WNW 18.4 mph 26.5 mph N/A   Clear
12:54 PM 37.0 °F 27.4 °F 8.1 °F 30% 30.06 in 10.0 mi NW 17.3 mph 24.2 mph N/A   Mostly Cloudy
1:54 PM 37.0 °F 29.3 °F 6.1 °F 28% 30.06 in 10.0 mi NNW 11.5 mph 20.7 mph N/A   Mostly Cloudy
2:54 PM 36.0 °F 26.7 °F 1.9 °F 24% 30.06 in 10.0 mi NNW 15.0 mph 26.5 mph N/A   Clear
3:54 PM 36.0 °F 27.5 °F 1.9 °F 24% 30.09 in 10.0 mi NNW 12.7 mph 25.3 mph N/A   Clear
4:54 PM 35.1 °F 24.5 °F 3.0 °F 26% 30.10 in 10.0 mi NW 18.4 mph 26.5 mph N/A   Clear
5:54 PM 34.0 °F 24.6 °F 3.0 °F 27% 30.13 in 10.0 mi NW 13.8 mph 21.9 mph N/A   Clear
6:54 PM 32.0 °F 23.6 °F 3.0 °F 29% 30.17 in 10.0 mi NW 10.4 mph - N/A   Clear
7:54 PM 30.9 °F 25.2 °F 1.9 °F 29% 30.21 in 10.0 mi NNW 5.8 mph - N/A   Clear
8:54 PM 28.9 °F 20.4 °F 3.9 °F 35% 30.26 in 10.0 mi North 9.2 mph - N/A   Clear
9:54 PM 28.0 °F 20.0 °F 1.9 °F 33% 30.28 in 10.0 mi NNW 8.1 mph - N/A   Clear
10:54 PM 26.1 °F 17.6 °F 1.9 °F 35% 30.32 in 10.0 mi North 8.1 mph - N/A   Clear
11:54 PM 25.0 °F 18.1 °F -0.0 °F 34% 30.35 in 10.0 mi NW 5.8 mph - N/A   Clear